Location: D�nning
(49.2479°N, 12.8491°E)
Time: 06:05:43
(UTC+00:00)

CREW DRAGON DEMO-1 DEB - Pass Details

Date: 18 September 2020
Orbit: 361 x 363 km, 51.6° (Epoch: 27 October)

Event Time Altitude Azimuth Distance (km) Brightness Sun altitude
Rises 18:33:49 0° 278° (W) 2,197 8.5 -13.5°
Reaches altitude 10° 18:35:52 10° 284° (WNW) 1,351 7.1 -13.8°
Maximum altitude 18:38:49 51° 2° (N) 469 3.4 -14.3°
Enters shadow 18:40:13 26° 66° (ENE) 761 3.9 -14.5°
